This is the latest recevied weather packets stored in our database for station/object K6TTR. If no packets are shown the sender has not sent any weather packets the latest 10 day(s).
| Time | Temp. | Humidity | Pressure | Rain* | Wind** | Luminosity | Snow |
|---|---|---|---|---|---|---|---|
| 1777776518 | 16.11° C | 46% | 1013.9 hPa | 0 mm | - | 9 W/m² | - |
| 1777776225 | 16.67° C | 45% | 1013.9 hPa | 0 mm | - | 11 W/m² | - |
| 1777775912 | 16.67° C | 42% | 1014.6 hPa | 0 mm | - | 16 W/m² | - |
| 1777775615 | 17.22° C | 39% | 1014.6 hPa | 0 mm | - | 21 W/m² | - |
| 1777775319 | 17.22° C | 40% | 1014.5 hPa | 0 mm | - | 26 W/m² | - |
| 1777775025 | 17.22° C | 38% | 1014.5 hPa | 0 mm | - | 33 W/m² | - |
| 1777774711 | 17.22° C | 38% | 1014.4 hPa | 0 mm | - | 39 W/m² | - |
| 1777774418 | 17.78° C | 36% | 1014.4 hPa | 0 mm | - | 42 W/m² | - |
| 1777774121 | 17.78° C | 37% | 1014.4 hPa | 0 mm | - | 47 W/m² | - |
| 1777773828 | 17.78° C | 36% | 1014.3 hPa | 0 mm | - | 53 W/m² | - |
| 1777773513 | 17.78° C | 35% | 1014.4 hPa | 0 mm | - | 60 W/m² | - |
| 1777773220 | 17.78° C | 35% | 1014.2 hPa | 0 mm | - | 74 W/m² | - |
| 1777772926 | 18.33° C | 36% | 1014.3 hPa | 0 mm | - | 79 W/m² | - |
| 1777772613 | 18.33° C | 35% | 1014.4 hPa | 0 mm | - | 91 W/m² | - |
| 1777772319 | 18.33° C | 35% | 1014.3 hPa | 0 mm | - | 107 W/m² | - |
| 1777772026 | 18.33° C | 35% | 1014.3 hPa | 0 mm | - | 120 W/m² | - |
| 1777771712 | 18.33° C | 34% | 1014.4 hPa | 0 mm | - | 109 W/m² | - |
| 1777771416 | 18.33° C | 34% | 1014.4 hPa | 0 mm | - | 109 W/m² | - |
| 1777771122 | 18.33° C | 34% | 1014.5 hPa | 0 mm | - | 114 W/m² | - |
| 1777770828 | 18.89° C | 36% | 1014.5 hPa | 0 mm | - | 125 W/m² | - |
| 1777770514 | 18.89° C | 35% | 1014.4 hPa | 0 mm | - | 132 W/m² | - |
| 1777770219 | 18.89° C | 38% | 1014.4 hPa | 0 mm | - | 130 W/m² | - |
| 1777769924 | 18.89° C | 37% | 1014.3 hPa | 0 mm | - | 125 W/m² | - |
| 1777769628 | 18.89° C | 38% | 1014.2 hPa | 0 mm | - | 139 W/m² | - |
| 1777769313 | 18.89° C | 37% | 1014.3 hPa | 0 mm | - | 134 W/m² | - |
* Rain latest hour (hover to see other rain measurements)
** Current wind speed in m/s (hover to see current wind gust speed)